Location: Robert Ferguson Observatory
(38.4385°N, 122.5078°W)
Time: 11:27:13
(UTC-07:00)

Daily predictions for brighter satellites

Satellite Brightness Start Highest point End
(mag) Time Altitude Azimuth Time Altitude Azimuth Time Altitude Azimuth
ATLAS CENTAUR Rocket 4.5 20:07:52 10° WSW 20:14:07 51° SSE 20:55:24 10° ESE
ATLAS CENTAUR Rocket 4.5 20:07:53 10° WSW 20:14:07 51° SSE 20:55:24 10° ESE
ATLAS CENTAUR Rocket 4.5 20:07:52 10° WSW 20:14:08 51° SSE 20:55:24 10° ESE
ATLAS CENTAUR Rocket 4.5 20:07:53 10° WSW 20:14:08 51° SSE 20:55:24 10° ESE
Cosmos 1515 Rocket 4.1 20:59:24 10° N 21:03:38 42° E 21:07:49 10° SSE
Cosmos 371 Rocket 3.3 20:59:57 10° NNW 21:04:47 86° ENE 21:09:35 10° SSE
ALOS 2.8 21:03:06 10° S 21:07:42 61° W 21:12:21 10° NNW
Cosmos 2151 4.3 21:04:54 10° SE 21:08:05 21° E 21:11:17 10° NE
CZ-4 DEB 3.0 21:06:56 10° S 21:10:07 72° WSW 21:13:19 10° NNW
USA 229 DEB 3.7 21:03:15 10° SSW 21:10:08 75° ESE 21:17:07 10° NE
USA 229 3.7 21:03:21 10° SSW 21:10:14 74° ESE 21:17:13 10° NE
Tiangong 1 2.6 21:08:50 10° S 21:10:57 17° SE 21:13:04 10° E
Cosmos 968 Rocket 4.0 21:13:28 10° SSW 21:18:36 66° WNW 21:23:49 10° NNE
Cosmos 1441 Rocket 3.1 21:15:23 10° S 21:19:09 82° E 21:22:55 10° N
AVUM R/B 2.3 21:17:45 10° SSW 21:19:59 64° ESE 21:22:26 10° NNE
Cosmos 2219 3.9 21:17:30 10° SSE 21:22:32 32° ESE 21:27:35 10° NE
Cosmos 1151 Rocket 3.6 21:20:30 10° N 21:24:35 41° E 21:28:41 10° SSE
SPOT 5 3.4 21:23:16 10° SE 21:27:29 40° ENE 21:31:56 10° N
Cosmos 2058 4.3 21:25:16 11° SE 21:28:12 21° E 21:31:19 10° NE
PSLV R/B 4.4 21:27:00 12° SE 21:29:17 26° ENE 21:31:55 10° NNE
Cosmos 2266 Rocket 4.1 21:23:25 10° S 21:29:37 61° E 21:35:44 10° NNE
NOSS 3-1 (A) 4.4 21:25:36 10° SSE 21:30:10 24° ESE 21:35:01 10° ENE
Cosmos 2322 4.1 21:27:02 10° NNW 21:32:36 51° ENE 21:37:34 13° SE
Cosmos 1553 Rocket 4.3 21:27:48 10° N 21:34:11 75° W 21:40:27 10° S
Cosmos 1437 3.4 21:31:38 10° SSE 21:34:40 37° E 21:37:44 10° NNE
Cosmos 2322 Rocket 2.9 21:29:25 10° NNW 21:34:52 52° WSW 21:40:16 10° S
Cosmos 1908 3.2 21:38:01 10° N 21:41:56 77° E 21:45:39 11° S
Envisat 3.0 21:37:00 10° SSE 21:42:04 77° ENE 21:47:09 10° N
Cosmos 2360 Rocket 2.3 21:38:49 10° NNW 21:44:28 66° ENE 21:49:08 15° SE
Cosmos 304 Rocket 4.0 21:40:06 10° N 21:44:52 58° ENE 21:48:35 16° SE
SL-16 R/B 3.1 21:40:20 10° NW 21:45:42 45° WSW 21:51:04 10° S
ERS-1 Rocket 3.5 21:40:49 10° S 21:45:44 57° W 21:50:43 10° NNW
H-2A R/B 2.4 21:42:50 10° S 21:47:20 72° WSW 21:51:53 10° NNW
CZ-2C R/B 2.0 21:49:25 12° SW 21:50:03 15° W 21:50:55 10° WNW
MetOp-B 4.3 21:47:14 14° SSE 21:51:41 58° ENE 21:56:56 10° N
Cosmos 1674 2.9 21:48:29 10° SSW 21:52:17 73° W 21:56:10 10° N
ATLAS 2AS CENTAUR R/B 4.2 21:50:45 15° ESE 21:52:52 17° ESE 21:57:20 10° ENE
Cosmos 2112 Rocket 4.2 21:49:42 10° N 21:54:53 59° ENE 21:58:39 19° SE
Cosmos 2298 Rocket 4.5 21:54:39 12° SSE 21:59:14 40° ESE 22:04:12 10° NNE
ATLAS CENTAUR R/B 4.1 21:57:42 10° W 21:59:23 12° WSW 22:01:00 10° SW
Cosmos 1939 Rocket 3.7 21:58:40 10° S 22:02:28 45° W 22:06:14 10° NNW
DELTA 2 R/B (1) 3.6 21:59:00 10° WNW 22:04:32 72° SSW 22:08:22 20° ESE
Cosmos 405 3.6 22:01:31 10° NNW 22:05:05 56° W 22:07:58 15° S
Cosmos 1300 3.3 22:01:47 10° N 22:05:25 40° E 22:07:01 26° SE
Cosmos 2227 Rocket 3.5 22:08:49 19° ESE 22:09:47 20° E 22:13:46 10° NE
YAOGAN 6 2.5 22:09:51 27° SSE 22:11:44 73° ENE 22:15:21 10° N
Nadezhda 2 Rocket 4.4 22:05:54 10° S 22:12:04 87° E 22:18:12 10° N
Cosmos 1437 Rocket 4.3 22:09:13 10° NNW 22:12:37 31° W 22:16:03 10° SSW
CZ-4 SHROUD 3.8 22:13:34 22° S 22:15:21 52° W 22:18:25 10° NNW
NOSS 3-1 (C) 3.3 22:11:07 10° SSW 22:16:53 75° ESE 22:23:16 10° NE
Terra 3.2 22:17:55 20° ESE 22:19:46 25° ENE 22:23:37 10° NNE
Cosmos 2333 Rocket 3.6 22:17:29 10° N 22:22:13 26° ENE 22:25:14 17° E
H-2A R/B 3.1 22:19:46 22° ESE 22:22:15 33° ENE 22:27:03 10° N
SL-23 DEB 3.7 22:17:38 10° NW 22:22:26 78° NE 22:23:46 36° ESE
Cosmos 1455 4.1 22:25:29 10° NNE 22:28:00 17° ENE 22:28:13 17° ENE
DELTA 2 R/B(2) 3.8 22:26:35 10° W 22:28:23 65° N 22:28:40 57° NE
Delta 2 Rocket 2.9 22:25:30 10° WSW 22:28:57 53° S 22:29:16 51° SSE
Cosmos 1680 Rocket 4.1 22:26:34 10° NNW 22:31:40 53° WSW 22:35:03 21° S
CZ-4B R/B 3.7 22:27:29 10° N 22:32:46 76° WNW 22:37:48 11° SSW
COSMOS 2428 2.7 22:28:31 10° NNW 22:34:14 81° ENE 22:37:03 31° SSE
SPOT 1/Viking Rocket 3.5 22:31:26 26° S 22:34:24 80° WSW 22:39:35 10° NNW
OAO 2 Rocket 3.8 22:29:28 10° SW 22:34:27 42° SSE 22:36:15 31° ESE
Cosmos 2297 Rocket 3.3 22:36:45 23° ESE 22:36:55 23° E 22:41:17 10° NE
Cosmos 2242 Rocket 3.7 22:33:22 10° N 22:37:48 58° E 22:39:10 40° SE
CZ-4C R/B 3.2 22:38:19 47° ESE 22:38:45 51° ENE 22:42:08 10° N
CZ-4 R/B 3.8 22:35:35 10° NNE 22:40:33 87° WNW 22:43:44 22° SSW
Cosmos 1898 Rocket 3.4 22:39:32 17° SSW 22:43:34 90° NNE 22:48:48 10° NNE
ARGOS 3.2 22:41:19 29° S 22:44:11 79° WSW 22:49:37 10° NNW
Cosmos 2219 Rocket 2.6 22:40:38 10° NNW 22:46:04 50° ENE 22:48:13 33° ESE
USA 245 3.5 22:46:59 34° W 22:46:59 34° W 22:49:10 10° NNW
BREEZE-M DEB (TANK) 4.5 22:45:39 10° NNW 22:47:09 16° NNE 22:48:17 13° ENE
Tiangong 1 1.1 22:44:09 10° WSW 22:47:01 73° W 22:47:01 73° W
Cosmos 2150 Rocket 4.1 22:43:36 14° SSW 22:48:19 81° WNW 22:53:49 10° NNE
DELTA 2 DEB (DPAF) 4.1 22:47:23 44° SSE 22:48:45 77° ENE 22:53:15 10° N
Cosmos 1862 Rocket 4.4 22:45:01 10° NNE 22:48:57 33° ENE 22:49:24 32° E
CARTOSAT-1 3.9 22:48:24 42° ESE 22:49:18 49° ENE 22:53:28 10° N
Cosmos 858 Rocket 4.4 22:46:12 20° SSW 22:49:54 87° WNW 22:55:09 10° NNE
Sich 1 3.3 22:48:19 27° SSW 22:50:40 67° W 22:55:03 10° N
Cosmos 1726 2.4 22:47:47 10° NNW 22:51:33 64° W 22:52:27 46° SSW
SL-08 RB Rocket 3.7 22:51:00 39° S 22:52:35 72° WSW 22:57:05 10° NNW
Cosmos 1633 Rocket 3.3 22:50:59 29° SSW 22:53:08 67° W 22:57:30 10° N
Cosmos 2237 4.5 22:50:08 10° NNW 22:55:48 63° WSW 22:58:17 33° S
FALCON 9 R/B 3.9 22:29:35 10° W 22:57:51 74° S 23:03:14 21° E
Lacrosse 4 Rocket 3.9 22:57:15 10° NNE 22:59:16 13° NE 23:00:59 11° ENE
SL-14 R/B 4.5 22:59:26 22° SW 23:01:30 40° W 23:05:17 10° N
Cosmos 1703 3.3 23:00:50 56° SSW 23:01:35 77° W 23:05:30 10° N
Cosmos 1271 Rocket 2.6 22:57:50 10° N 23:01:41 82° W 23:02:06 69° SSW
Cosmos 1980 4.1 22:57:58 10° NNW 23:03:28 50° ENE 23:05:12 37° ESE
DMSP B5D2-2 3.9 23:02:51 10° NNE 23:08:06 75° ESE 23:09:38 46° S
Iridium 2 3.9 23:11:14 58° SW 23:11:41 64° W 23:15:31 10° N
Cosmos 2237 Rocket 2.4 23:10:43 10° NNW 23:16:21 59° ENE 23:17:50 45° ESE
ERBS 4.4 23:18:46 21° NE 23:18:46 21° NE 23:20:01 10° NE
Cosmos 2082 3.6 23:16:22 43° S 23:18:17 77° ESE 23:24:01 10° NNE
Meteor 1-4 Rocket 3.4 23:14:45 10° NNW 23:18:19 42° W 23:18:34 41° WSW
NOSS 3-1 (A) 4.2 23:14:47 10° SW 23:20:31 52° NW 23:26:52 10° NNE
Cosmos 2360 Rocket 4.4 23:24:38 10° WNW 23:27:48 15° W 23:30:54 10° SW
Cosmos 1626 2.5 23:30:01 64° NW 23:30:01 64° NW 23:33:29 10° N
COSMOS 2455 3.8 23:25:07 10° NNW 23:30:43 38° NE 23:32:42 30° E
Cosmos 1241 Rocket 4.4 23:28:21 25° SW 23:32:11 80° WNW 23:38:28 10° NNE
Cosmos 1933 4.3 23:29:16 10° N 23:32:31 38° NE 23:32:31 38° NE
IGS 5A 3.8 23:34:54 54° WSW 23:34:59 54° W 23:39:05 10° NNW
ATLAS 2AS CENTAUR R/B 2.9 23:38:03 27° SSW 23:42:39 88° ESE 23:50:45 10° NNE
Nadezhda 1 Rocket 4.4 23:38:51 10° NNW 23:44:46 55° W 23:46:43 39° SW
Okean 1-7 4.3 23:42:39 10° NNE 23:45:52 31° ENE 23:45:52 31° ENE
Cosmos 1703 Rocket 3.9 23:45:32 10° N 23:49:20 56° NE 23:49:20 56° NE
Cosmos 2227 Rocket 2.8 23:50:34 28° SW 23:53:21 52° WNW 23:58:54 10° NNE
